Find Starlink 37164

NORAD ID: 68324 Int'l Des: 2026-059 Owner: SPXS Country: US Constellation: starlink operational
LEOCIRCULAR

Current View

Loading 3D Globe...

About Starlink 37164

Starlink 37164 (NORAD 68324) is a starlink constellation satellite (v2 mini) launched Mar 22, 2026 by SPXS of US. It operates in LEO, CIRCULAR orbit with a mass of 575.00 kg.

About Starlink 37164

Description loading...

Upcoming Passes

Passes for default location (London). Set your location on the main map for personalized predictions.

Altitude History

Loading altitude history...

Two-Line Element Set

1 68324U 26059D 26171.41381564 .00008173 00000-0 28773-3 0 9993
2 68324 53.1580 231.0918 0001538 75.3401 284.7770 15.30203012 15039
Epoch: Jun 20, 2026 • Age: 32 hours

Current Status

Altitude 483.0 km
Velocity 7.62 km/s
Sub-Earth Point -24.80°S, 118°W
Launch Date Mar 22, 2026
Age 0.2 years
Type internet

Technical Details

Classification Payload
Mass 575.00 kg
Dry Mass 530.00 kg
Total Mass 575.00 kg
Length 0.30 m
Diameter 4.10 m
Span 29.00 m
Shape Box + pan
Manufacturer SPXS
Bus Type Starlink V2MO
Phase Status In Orbit
Owner/State SPXS/US

Most Searched